Weather History for KMLC - August, 2013

Change the Weather History Date:

Saturday, August 24, 2013

  Actual Average Record
Temperature  
Mean Temperature 82 °F -  
Max Temperature 93 °F 92 °F 105 °F (2011)
Min Temperature 70 °F 68 °F 53 °F (1961)
Cooling Degree Days 16    
Growing Degree Days 32 (Base 50)    
Moisture  
Dew Point 68 °F    
Average Humidity 65    
Maximum Humidity 93    
Minimum Humidity 42    
Precipitation  
Precipitation 0.00 in - - ()
Sea Level Pressure  
Sea Level Pressure 30.05 in    
Wind  
Wind Speed 4 mph (East)    
Max Wind Speed 8 mph    
Max Gust Speed -    
Visibility 10 miles    
Events      
Averages and records for this station are not official NWS values.
T = Trace of Precipitation, MM = Missing Value Source: NWS Daily Summary

Daily Weather History Graph

Daily Weather History Graph

Search for Another Location

Airport or City:

Trip Planner

Search our weather history database for the weather conditions in past years. The results will help you decide how hot, cold, wet, or windy it might be!

Date:

Astronomy

Aug. 24, 2013 Rise Set
Actual Time 6:50 AM CDT 7:59 PM CDT
Civil Twilight 6:24 AM CDT 8:26 PM CDT
Nautical Twilight 5:52 AM CDT 8:57 PM CDT
Astronomical Twilight 5:20 AM CDT 9:29 PM CDT
Moon 10:07 PM CDT (8/24) 10:39 AM CDT (8/24)
Length of Visible Light 14h 02m
Length of Day
13h 09m
Waning Gibbous, 84% of the Moon is Illuminated
Aug 24
Waning Gibbous
Aug 28
Last Quarter
Sep 5
New
Sep 12
First Quarter
Sep 19
Full

Hourly Weather History & Observations

Time (CDT) Temp. Heat Index Dew Point Humidity Pressure Visibility Wind Dir Wind Speed Gust Speed Precip Events Conditions
12:53 AM 73.9 °F - 71.1 °F 91% 30.01 in 10.0 mi East 4.6 mph - N/A   Mostly Cloudy
1:53 AM 73.9 °F - 69.1 °F 85% 30.01 in 10.0 mi ESE 4.6 mph - N/A   Partly Cloudy
2:53 AM 75.0 °F - 69.1 °F 82% 30.01 in 10.0 mi East 4.6 mph - N/A   Clear
3:53 AM 75.0 °F - 68.0 °F 79% 30.02 in 10.0 mi ESE 3.5 mph - N/A   Clear
4:53 AM 72.0 °F - 68.0 °F 87% 30.03 in 10.0 mi ESE 3.5 mph - N/A   Clear
5:53 AM 70.0 °F - 68.0 °F 93% 30.04 in 10.0 mi Calm Calm - N/A   Scattered Clouds
6:53 AM 71.1 °F - 68.0 °F 90% 30.06 in 10.0 mi Calm Calm - N/A   Scattered Clouds
7:53 AM 75.0 °F - 69.1 °F 82% 30.07 in 10.0 mi Calm Calm - N/A   Partly Cloudy
8:53 AM 79.0 °F - 70.0 °F 74% 30.08 in 10.0 mi ESE 5.8 mph - N/A   Scattered Clouds
9:53 AM 82.0 °F 86.3 °F 71.1 °F 69% 30.09 in 10.0 mi ESE 5.8 mph - N/A   Clear
10:53 AM 87.1 °F 92.0 °F 70.0 °F 57% 30.10 in 10.0 mi Variable 5.8 mph - N/A   Clear
11:53 AM 89.1 °F 92.9 °F 68.0 °F 50% 30.09 in 10.0 mi Variable 4.6 mph - N/A   Clear
12:53 PM 90.0 °F 93.6 °F 68.0 °F 48% 30.08 in 10.0 mi Variable 4.6 mph - N/A   Scattered Clouds
1:53 PM 91.0 °F 94.3 °F 66.9 °F 45% 30.06 in 10.0 mi Variable 3.5 mph - N/A   Partly Cloudy
2:53 PM 93.0 °F 96.4 °F 66.9 °F 42% 30.05 in 10.0 mi East 5.8 mph - N/A   Clear
3:53 PM 91.9 °F 95.9 °F 68.0 °F 45% 30.03 in 10.0 mi Variable 5.8 mph - N/A   Clear
4:53 PM 93.0 °F 96.4 °F 66.9 °F 42% 30.02 in 10.0 mi Variable 6.9 mph - N/A   Clear
5:53 PM 91.0 °F 95.2 °F 68.0 °F 47% 30.02 in 10.0 mi ENE 8.1 mph - N/A   Clear
6:53 PM 89.1 °F 92.1 °F 66.9 °F 48% 30.02 in 10.0 mi Variable 5.8 mph - N/A   Clear
7:53 PM 84.9 °F 87.1 °F 66.0 °F 53% 30.02 in 10.0 mi East 5.8 mph - N/A   Clear
8:53 PM 82.0 °F 84.1 °F 66.0 °F 58% 30.04 in 10.0 mi ENE 4.6 mph - N/A   Clear
9:53 PM 80.1 °F 82.1 °F 66.0 °F 62% 30.06 in 10.0 mi East 3.5 mph - N/A   Clear
10:53 PM 79.0 °F - 66.9 °F 66% 30.08 in 10.0 mi Variable 3.5 mph - N/A   Clear
11:53 PM 77.0 °F - 68.0 °F 74% 30.08 in 10.0 mi ESE 3.5 mph - N/A   Clear